[[{"header":{"parameterUnit":"m.s-1","parameterCategory":1,"la1":30.2991,"la2":30.254,"lo1":-89.0895,"lo2":-89.0444,"dy":0.0017,"dx":0.0017,"nx":28,"ny":28,"refTime":"2025-09-15T21:00:00:Z","depth":0,"parameterNumber":2,"parameterNumberName":"U-component_of_WINDS"},"data":[0,0,0,0,0,0,0,0,0,0,0,0,0,0,0,0,0,0,0,0,0,0,0,0,0,0,0,0,0,0,0,0,0,0,0,0,0,0,0,0,0,0,0,0,0,0,0,0,0,0,0,0,0,0,0,0,0,0,-0.2069,-0.2068,0,-0.2007,-0.2006,-0.2005,-0.1977,-0.1977,-0.1977,-0.1977,-0.1913,-0.1911,-0.191,0,0,0,0,0,0,0,0,0,0,0,0,0,-0.2166,-0.2164,-0.2069,-0.2068,-0.2068,-0.2007,-0.2006,-0.2005,-0.1977,-0.1977,-0.1977,-0.1977,-0.1914,-0.1912,-0.191,0,0,0,0,0,0,0,0,0,0,0,0,0,-0.2116,-0.2164,-0.2069,-0.2046,-0.2043,-0.2007,-0.2006,-0.2005,-0.1977,-0.1977,-0.1977,-0.1977,-0.1914,-0.1912,-0.1909,-0.1891,0,0,-0.1901,-0.19,0,0,0,0,0,0,0,0,-0.2119,-0.2112,-0.205,-0.2048,-0.2045,-0.1999,-0.2017,-0.1967,-0.1977,-0.2002,-0.1977,-0.1977,-0.1942,-0.1937,-0.1925,-0.1888,-0.1886,-0.1901,-0.1899,-0.1898,-0.1898,0,0,0,0,0,0,0,-0.2122,-0.2115,-0.2044,-0.2049,-0.2046,-0.2039,-0.2032,-0.2007,-0.1972,-0.2,-0.1998,-0.199,-0.194,-0.1928,-0.1923,-0.1885,-0.1901,-0.1899,-0.1897,-0.1896,-0.1832,-0.1832,0,0,0,0,0,0,-0.2129,-0.2118,-0.2046,-0.2043,-0.2082,-0.2038,-0.203,-0.2014,-0.1972,-0.1966,-0.199,-0.1989,-0.1932,-0.1926,-0.1921,-0.1898,-0.1898,-0.1896,-0.1894,-0.1832,-0.1832,-0.1832,0,0,0,0,0,0,-0.2131,-0.2123,-0.2049,-0.208,-0.207,-0.2036,-0.2018,-0.2013,-0.2,-0.1965,-0.1959,-0.1984,-0.1932,-0.1925,-0.1899,-0.1896,-0.1895,-0.1892,-0.1832,-0.1832,-0.1832,-0.1852,0,0,0,0,0,0,-0.2134,-0.2124,-0.2116,-0.208,-0.2068,-0.2028,-0.2018,-0.2011,-0.1995,-0.1993,-0.1957,-0.1952,-0.1931,-0.1903,-0.1897,-0.1892,-0.189,-0.1833,-0.1832,-0.1832,-0.1852,-0.1853,-0.1854,0,0,0,0,0,-0.2138,-0.2124,-0.2116,-0.2108,-0.2058,-0.2028,-0.2021,-0.1998,-0.1995,-0.1988,-0.1966,-0.1953,-0.1897,-0.1901,-0.1893,-0.1888,-0.1833,-0.1832,-0.1832,-0.1851,-0.1853,-0.1854,0,0,0,0,0,0,-0.2161,-0.2119,-0.2109,-0.2083,-0.2059,-0.2023,-0.2012,-0.2,-0.1976,-0.1975,-0.1948,-0.194,-0.1917,-0.19,-0.1905,-0.1869,-0.1864,-0.1862,-0.1881,-0.1882,-0.1883,-0.1888,-0.1888,0,0,0,0,0,-0.2163,-0.2142,-0.2106,-0.2087,-0.2075,-0.2046,-0.2032,-0.2017,-0.1991,-0.198,-0.1957,-0.1932,-0.1909,-0.1895,-0.1872,-0.1849,-0.1842,-0.1842,-0.1843,-0.1844,-0.1843,-0.1831,-0.1831,-0.1831,-0.1831,-0.1831,0,0,-0.2167,-0.2142,-0.213,-0.2091,-0.2071,-0.205,-0.2038,-0.2016,-0.2001,-0.1977,-0.1952,-0.1934,-0.1905,-0.1881,-0.187,-0.1866,-0.1841,-0.1844,-0.1845,-0.1843,-0.1831,-0.1831,-0.1831,-0.1831,-0.1831,-0.1831,0,0,-0.2164,-0.2143,-0.2125,-0.2105,-0.2074,-0.2055,-0.2051,-0.2016,-0.2004,-0.1978,-0.196,-0.1942,-0.1903,-0.1884,-0.1869,-0.1861,-0.1848,-0.1854,-0.1859,-0.1848,-0.1848,-0.1848,-0.1846,-0.1845,-0.1853,-0.1853,-0.1853,0,-0.2174,-0.2141,-0.2117,-0.2096,-0.208,-0.2059,-0.2041,-0.2023,-0.1987,-0.1976,-0.1973,-0.1925,-0.1904,-0.1876,-0.1874,-0.1863,-0.1858,-0.1857,-0.185,-0.1849,-0.1849,-0.1847,-0.1846,-0.1854,-0.1854,-0.1853,-0.1853,0,-0.2154,-0.2132,-0.2121,-0.2087,-0.207,-0.2051,-0.2025,-0.2011,-0.1997,-0.1979,-0.1954,-0.1928,-0.19,-0.1893,-0.1879,-0.1864,-0.1863,-0.1855,-0.1849,-0.185,-0.1848,-0.1847,-0.1855,-0.1855,-0.1854,-0.1854,0,0,-0.2163,-0.2117,-0.2113,-0.2098,-0.2063,-0.2046,-0.2027,-0.2,-0.1989,-0.1965,-0.1949,-0.1917,-0.191,-0.1894,-0.1878,-0.1868,-0.1865,-0.1862,-0.1861,-0.1864,-0.1848,-0.1854,-0.1853,-0.1857,-0.1856,-0.1856,-0.185,0,-0.2156,-0.2119,-0.2098,-0.2071,-0.2051,-0.2031,-0.2015,-0.1993,-0.1975,-0.1957,-0.1938,-0.1916,-0.1908,-0.1898,-0.1888,-0.1867,-0.1861,-0.1868,-0.1842,-0.1841,-0.185,-0.1852,-0.1858,-0.1853,-0.1849,-0.1849,-0.1849,0,-0.2142,-0.2119,-0.209,-0.2059,-0.205,-0.2035,-0.2009,-0.1991,-0.1966,-0.1955,-0.1937,-0.1922,-0.1902,-0.1898,-0.1871,-0.1876,-0.1864,-0.1853,-0.1852,-0.1849,-0.1845,-0.1849,-0.1851,-0.1851,-0.1847,-0.1847,-0.1847,0,-0.2152,-0.2114,-0.2092,-0.2079,-0.2042,-0.2033,-0.2017,-0.1992,-0.1978,-0.1956,-0.1947,-0.1923,-0.1909,-0.1892,-0.1871,-0.187,-0.1846,-0.184,-0.1837,-0.1837,-0.1832,-0.1833,-0.1833,-0.1825,-0.1825,-0.1825,-0.1825,0,-0.2146,-0.2129,-0.2096,-0.2082,-0.2064,-0.204,-0.2022,-0.2005,-0.1984,-0.1967,-0.1949,-0.1934,-0.1907,-0.1889,-0.1873,-0.1854,-0.1848,-0.1839,-0.1834,-0.184,-0.1842,-0.1832,-0.1832,-0.1824,-0.1824,-0.1824,-0.1825,0,-0.2154,-0.2131,-0.2106,-0.2073,-0.2065,-0.2053,-0.2025,-0.2012,-0.1995,-0.1975,-0.1968,-0.1941,-0.192,-0.1897,-0.1868,-0.1857,-0.1838,-0.1832,-0.1847,-0.1845,-0.1842,-0.1843,-0.1837,-0.1835,-0.1828,-0.1828,-0.1828,0,-0.2151,-0.2138,-0.2105,-0.2092,-0.2077,-0.2057,-0.2043,-0.202,-0.2006,-0.1977,-0.1968,-0.1945,-0.1925,-0.1892,-0.187,-0.1848,-0.1842,-0.1841,-0.1838,-0.1845,-0.1842,-0.1844,-0.1843,-0.1842,-0.1842,-0.1842,-0.1842,0,-0.215,-0.2139,-0.2119,-0.2095,-0.2078,-0.2058,-0.2038,-0.2029,-0.2002,-0.1988,-0.1965,-0.195,-0.1921,-0.1899,-0.1875,-0.1859,-0.1847,-0.1844,-0.1842,-0.1848,-0.1857,-0.1853,-0.185,-0.1844,-0.1844,-0.1844,-0.1844,-0.1843,-0.2152,-0.214,-0.2115,-0.2094,-0.2076,-0.2058,-0.2044,-0.2026,-0.2006,-0.1981,-0.1968,-0.1947,-0.1924,-0.189,-0.1875,-0.1858,-0.1855,-0.1852,-0.1851,-0.1851,-0.1853,-0.186,-0.1854,-0.1854,-0.1854,-0.1854,-0.1854,0,-0.2151,-0.2134,-0.2114,-0.2086,-0.207,-0.206,-0.2037,-0.2024,-0.2005,-0.1984,-0.1966,-0.1941,-0.192,-0.1898,-0.1876,-0.1867,-0.1861,-0.1862,-0.1862,-0.1859,-0.1857,-0.1861,-0.1867,-0.1867,-0.1867,-0.1867,-0.1867,-0.1867,-0.2148,-0.2127,-0.2114,-0.2085,-0.2068,-0.2047,-0.2035,-0.2018,-0.2002,-0.1975,-0.1958,-0.1943,-0.1922,-0.1899,-0.188,-0.1874,-0.1867,-0.187,-0.1862,-0.186,-0.1859,-0.1858,-0.1862,-0.1868,-0.1868,-0.1866,-0.1866,-0.1866]},{"header":{"parameterUnit":"m.s-1","parameterCategory":1,"la1":30.2991,"la2":30.254,"lo1":-89.0895,"lo2":-89.0444,"dy":0.0017,"dx":0.0017,"nx":28,"ny":28,"refTime":"2025-09-15T21:00:00:Z","depth":0,"parameterNumber":3,"parameterNumberName":"V-component_of_WINDS"},"data":[0,0,0,0,0,0,0,0,0,0,0,0,0,0,0,0,0,0,0,0,0,0,0,0,0,0,0,0,0,0,0,0,0,0,0,0,0,0,0,0,0,0,0,0,0,0,0,0,0,0,0,0,0,0,0,0,0,0,3.745,3.7449,0,3.7366,3.7366,3.7365,3.7341,3.7342,3.7342,3.7343,3.7249,3.7246,3.7243,0,0,0,0,0,0,0,0,0,0,0,0,0,3.7582,3.758,3.745,3.7449,3.7448,3.7367,3.7365,3.7364,3.7341,3.7342,3.7342,3.7343,3.725,3.7246,3.7243,0,0,0,0,0,0,0,0,0,0,0,0,0,3.7514,3.7579,3.745,3.7427,3.7424,3.7367,3.7365,3.7364,3.7341,3.7342,3.7342,3.7343,3.7251,3.7247,3.7242,3.72,0,0,3.7229,3.7227,0,0,0,0,0,0,0,0,3.7518,3.7509,3.7431,3.7428,3.7425,3.7365,3.7378,3.7309,3.7341,3.7372,3.7343,3.7343,3.7286,3.7279,3.7262,3.7196,3.7192,3.7228,3.7226,3.7224,3.7223,0,0,0,0,0,0,0,3.7523,3.7513,3.7417,3.743,3.7426,3.7418,3.7409,3.7364,3.7326,3.737,3.7368,3.7358,3.7285,3.7266,3.7259,3.719,3.7229,3.7225,3.7222,3.722,3.7083,3.7082,0,0,0,0,0,0,3.7533,3.7517,3.742,3.7414,3.7475,3.7415,3.7405,3.7383,3.7326,3.7319,3.7358,3.7358,3.7273,3.7264,3.7256,3.7201,3.7224,3.722,3.7217,3.7084,3.7083,3.7082,0,0,0,0,0,0,3.7535,3.7524,3.7423,3.7465,3.7452,3.7412,3.7388,3.7381,3.7363,3.7318,3.731,3.7346,3.7273,3.7262,3.7214,3.7198,3.7218,3.7214,3.7085,3.7084,3.7082,3.7092,0,0,0,0,0,0,3.7539,3.7525,3.7511,3.7465,3.745,3.7385,3.7387,3.7379,3.7356,3.7355,3.7305,3.7297,3.7273,3.7221,3.721,3.7192,3.721,3.7087,3.7085,3.7083,3.7093,3.7091,3.709,0,0,0,0,0,3.7544,3.7516,3.751,3.7499,3.7431,3.7384,3.7375,3.7351,3.7355,3.7338,3.7309,3.7299,3.7202,3.7216,3.7204,3.7184,3.7087,3.7085,3.7083,3.7094,3.7092,3.709,0,0,0,0,0,0,3.7558,3.7509,3.7503,3.7459,3.7427,3.7381,3.7359,3.7349,3.7312,3.7313,3.7281,3.727,3.7224,3.7199,3.7216,3.7139,3.7144,3.7139,3.7157,3.7154,3.7152,3.7158,3.7207,0,0,0,0,0,3.7557,3.7526,3.7484,3.7449,3.7433,3.7399,3.7378,3.7362,3.7326,3.7311,3.7278,3.7241,3.7202,3.7177,3.7139,3.709,3.7077,3.707,3.7068,3.7067,3.7063,3.7033,3.7028,3.7075,3.7075,3.7075,0,0,3.7552,3.7522,3.7503,3.7451,3.7424,3.7389,3.7388,3.7352,3.7325,3.7304,3.7258,3.7233,3.7189,3.714,3.7117,3.7118,3.7047,3.7064,3.7064,3.706,3.703,3.7026,3.7022,3.7073,3.7073,3.7074,0,0,3.7526,3.7501,3.7469,3.7442,3.7402,3.7379,3.7372,3.7327,3.7311,3.7264,3.7247,3.7214,3.7148,3.7117,3.7092,3.7055,3.7042,3.7043,3.7033,3.7004,3.7,3.6997,3.6981,3.6976,3.7039,3.7039,3.7039,0,3.7525,3.7476,3.7453,3.7418,3.7394,3.7377,3.7342,3.7316,3.7264,3.7247,3.725,3.7166,3.7135,3.7078,3.7069,3.7051,3.7038,3.7048,3.7003,3.6999,3.6996,3.698,3.6975,3.7039,3.7039,3.7039,3.7039,0,3.7475,3.7441,3.7419,3.7372,3.7345,3.7311,3.728,3.7256,3.7242,3.7219,3.717,3.7133,3.7086,3.7071,3.7057,3.7011,3.7013,3.701,3.7014,3.6992,3.6977,3.6971,3.7039,3.7039,3.7039,3.7039,0,0,3.7455,3.7396,3.7388,3.7366,3.732,3.7291,3.7255,3.7212,3.719,3.7155,3.7121,3.7066,3.7063,3.7035,3.7016,3.6992,3.6961,3.6991,3.6989,3.6985,3.6906,3.6907,3.6901,3.6954,3.6952,3.6951,3.6909,0,3.7421,3.7358,3.7337,3.7283,3.725,3.7232,3.72,3.7167,3.7143,3.7109,3.7083,3.7043,3.7043,3.7026,3.7001,3.697,3.6944,3.6973,3.6919,3.6917,3.6929,3.6893,3.6895,3.6856,3.6903,3.6902,3.6901,0,3.7374,3.7341,3.7284,3.7242,3.7227,3.7198,3.7156,3.7125,3.7086,3.707,3.704,3.7023,3.6981,3.6989,3.6929,3.6949,3.6925,3.6907,3.6905,3.6897,3.6907,3.6882,3.6844,3.6837,3.6892,3.6893,3.6893,0,3.7363,3.7303,3.7261,3.7243,3.7193,3.7173,3.715,3.7112,3.7087,3.7049,3.7032,3.6989,3.6965,3.693,3.6901,3.691,3.6843,3.6849,3.6826,3.6827,3.6811,3.6812,3.6766,3.68,3.68,3.68,3.68,0,3.7327,3.7293,3.7255,3.7229,3.7189,3.7164,3.7124,3.71,3.7066,3.7033,3.7015,3.6984,3.6949,3.6912,3.6889,3.6841,3.683,3.6814,3.6808,3.6815,3.6817,3.6797,3.6798,3.6798,3.6798,3.6799,3.6799,0,3.7307,3.7281,3.7234,3.719,3.7179,3.7151,3.7112,3.7085,3.7061,3.7019,3.7008,3.697,3.6925,3.6894,3.6836,3.682,3.6768,3.6763,3.6782,3.6779,3.6757,3.6758,3.6695,3.6684,3.6727,3.6727,3.6726,0,3.7285,3.7258,3.7212,3.719,3.7168,3.7133,3.7107,3.7081,3.7054,3.7008,3.6985,3.694,3.6903,3.6832,3.6797,3.6752,3.6744,3.6725,3.6737,3.6744,3.6741,3.6742,3.6738,3.6723,3.6722,3.6722,3.6722,0,3.7247,3.7236,3.7202,3.7163,3.7134,3.7101,3.7067,3.7049,3.7016,3.6987,3.6943,3.6914,3.6856,3.681,3.6762,3.6736,3.6722,3.6719,3.6711,3.6716,3.6727,3.6719,3.6775,3.672,3.672,3.672,3.672,3.672,3.7224,3.7199,3.7163,3.7124,3.7097,3.7066,3.7038,3.7012,3.6976,3.6928,3.6914,3.6867,3.6826,3.6761,3.6733,3.6694,3.6695,3.6684,3.6681,3.6678,3.6677,3.6736,3.6686,3.6686,3.6686,3.6686,3.6686,0,3.7184,3.716,3.7126,3.708,3.705,3.7043,3.7006,3.6979,3.694,3.6904,3.6868,3.6816,3.6772,3.6734,3.6687,3.6663,3.6655,3.6651,3.6651,3.6645,3.668,3.6691,3.6658,3.6658,3.6658,3.6658,3.6658,3.6658,3.7159,3.7116,3.71,3.7042,3.7018,3.6974,3.6953,3.6923,3.6895,3.6839,3.6803,3.6779,3.6742,3.6692,3.665,3.664,3.6622,3.6619,3.6607,3.664,3.6643,3.6646,3.6656,3.6616,3.6616,3.6575,3.6574,3.6574]}]]